Location: B
(0.0000°N, 0.0000°E)
Time: 22:21:38
(UTC+01:00)

Amateur Radio Satellites - All Passes

Search period start: 20 November 2017 21:51
Search period end: 21 November 2017 21:51
Location: B, 0.0000°N, 0.0000°E

Satellite Date Start Highest point End Downlink Frequencies (MHz)
Time Altitude Azimuth
UNISAT 6 20 Nov 22:04:33 22:08:29 37° 102° (ESE) 22:12:29 437.425
TIGRISAT 20 Nov 22:09:07 22:13:03 38° 102° (ESE) 22:17:04 435.000
FO-29 20 Nov 22:15:57 22:22:02 29° 285° (WNW) 22:27:40 435.910
Max Valier Satellite 20 Nov 22:40:15 22:43:51 52° 259° (WSW) 22:47:25 145.860
EO-88 20 Nov 22:40:24 22:44:02 88° 259° (W) 22:47:38 145.990 - 145.960
SRMSAT 20 Nov 22:43:04 22:46:14 14° 12° (NNE) 22:49:24 437.500
JUGNU 20 Nov 22:47:50 22:53:36 59° 21° (NNE) 22:59:25 437.505
DELFI C3 20 Nov 22:59:48 23:02:31 18° 259° (WSW) 23:05:13 145.870
LO-87 20 Nov 23:08:48 23:10:53 15° 79° (E) 23:12:56 145.935 - 145.965
PCSat 20 Nov 23:18:23 23:22:59 29° 110° (ESE) 23:27:35 145.827
PRISM 20 Nov 23:18:23 23:22:29 68° 282° (WNW) 23:26:34 437.425
EO-79 20 Nov 23:40:24 23:41:41 11° 102° (ESE) 23:42:58 145.935-145.965
NANOSAT C BR1 20 Nov 23:44:26 23:45:26 11° 102° (ESE) 23:46:26 145.865
POLYITAN 1 20 Nov 23:53:49 23:56:45 19° 102° (ESE) 23:59:42 437.675
ESTCUBE 1 20 Nov 23:55:05 23:59:27 54° 78° (ENE) 00:03:48 437.505/2401.250
AIST 2D 21 Nov 00:02:57 00:06:25 59° 282° (WNW) 00:09:56 435.315
QB50P2 21 Nov 00:15:57 00:19:58 46° 102° (ESE) 00:24:01 145.880/145.840
SRMSAT 21 Nov 00:30:45 00:35:59 31° 19° (NNE) 00:41:14 437.500
JUGNU 21 Nov 00:36:57 00:42:39 50° 200° (SSW) 00:48:24 437.505
LO-87 21 Nov 00:41:58 00:44:00 14° 258° (WSW) 00:46:01 145.935 - 145.965
PCSat 21 Nov 01:02:26 01:06:06 19° 290° (WNW) 01:09:47 145.827
DUCHIFAT 1 21 Nov 01:06:42 01:10:40 46° 282° (WNW) 01:14:41 145.980
EO-79 21 Nov 01:13:39 01:17:09 26° 282° (WNW) 01:20:41 145.935-145.965
NANOSAT C BR1 21 Nov 01:17:18 01:20:51 27° 282° (WNW) 01:24:24 145.865
SPROUT 21 Nov 01:21:15 01:25:28 54° 259° (WSW) 01:29:38 437.525
Oscar 19 21 Nov 01:21:50 01:25:32 20° 103° (ESE) 01:29:15 437.125/150
O/OREOS (USA 219) 21 Nov 01:26:42 01:31:10 86° 256° (WSW) 01:35:39 437.305
NO-84 21 Nov 01:28:18 01:32:08 40° 57° (ENE) 01:35:46 435.350 FM
POLYITAN 1 21 Nov 01:29:37 01:32:15 16° 282° (WNW) 01:34:54 437.675
Gurwin Techsat 1B 21 Nov 01:41:34 01:45:38 23° 103° (ESE) 01:49:44 435.225
UKube-1 21 Nov 01:51:37 01:54:06 15° 78° (ENE) 01:56:34 .
VELOX 1 21 Nov 01:55:13 01:59:10 33° 258° (WSW) 02:03:10 145.980
BUGSAT 1 21 Nov 02:01:53 02:05:42 45° 282° (WNW) 02:09:32 437.445
BEESAT 2 21 Nov 02:11:31 02:13:19 13° 112° (ESE) 02:15:07 435.950
SRMSAT 21 Nov 02:19:16 02:25:18 83° 22° (NNE) 02:31:20 437.500
JUGNU 21 Nov 02:27:38 02:31:59 21° 196° (SSW) 02:36:21 437.505
BEESAT 3 21 Nov 02:37:02 02:40:42 39° 292° (WNW) 02:44:24 437.485
50 SAT 21 Nov 02:39:18 02:42:09 29° 259° (WSW) 02:44:59 437.505
DX 1 21 Nov 02:42:22 02:46:33 49° 258° (WSW) 02:50:45 434.975-435.025
AO-7 21 Nov 02:46:20 02:51:05 16° 107° (ESE) 02:55:48 .
AO-85 21 Nov 02:46:44 02:47:40 11° 114° (ESE) 02:48:35 145.980
MOZHAYETS 4 21 Nov 02:59:32 03:02:09 15° 78° (ENE) 03:04:45
Oscar 19 21 Nov 03:00:23 03:04:34 25° 283° (WNW) 03:08:46 437.125/150
ITAMSAT 1 21 Nov 03:15:24 03:16:43 11° 103° (ESE) 03:18:03 435.822/435.867
M-CUBED/EXP-1 PRIME 21 Nov 03:18:37 03:23:15 89° 97° (E) 03:27:47 437.505
Gurwin Techsat 1B 21 Nov 03:21:11 03:25:18 23° 283° (WNW) 03:29:26 435.225
UKube-1 21 Nov 03:26:31 03:29:50 22° 257° (WSW) 03:33:09 .
BEESAT 2 21 Nov 03:47:45 03:50:45 21° 292° (WNW) 03:53:48 435.950
BEESAT 21 Nov 04:07:32 04:12:21 87° 260° (W) 04:17:06 436.000
SRMSAT 21 Nov 04:09:04 04:14:34 37° 200° (SSW) 04:20:05 437.500
ITUPSAT 1 21 Nov 04:16:53 04:21:40 67° 257° (WSW) 04:26:25 437.325
JUGNU 21 Nov 04:20:03 04:21:52 11° 187° (S) 04:23:41 437.505
AO-85 21 Nov 04:24:39 04:27:49 23° 291° (WNW) 04:30:56 145.980
AO-7 21 Nov 04:35:10 04:43:23 63° 286° (WNW) 04:51:39 .
MOZHAYETS 4 21 Nov 04:35:17 04:39:02 25° 258° (WSW) 04:42:46
CUBESAT XI-V 21 Nov 04:44:41 04:49:14 63° 78° (ENE) 04:53:45 437.345
ITAMSAT 1 21 Nov 04:51:00 04:55:52 43° 283° (WNW) 05:00:47 435.822/435.867
KKS-1 21 Nov 04:55:57 04:57:41 12° 78° (ENE) 04:59:25 437.445
RS-15 21 Nov 05:37:06 05:47:40 46° 69° (ENE) 05:57:50 29.354- 29.394
DOVE 4 21 Nov 05:40:59 05:45:49 85° 98° (E) 05:50:22 437.250
FALCONSAT 3 21 Nov 05:48:16 05:50:52 18° 143° (SE) 05:53:26 435.103
XW-2D 21 Nov 06:00:21 06:02:51 17° 102° (ESE) 06:05:21 145.860 - 145.880
SRMSAT 21 Nov 06:00:32 06:04:14 17° 193° (SSW) 06:07:56 437.500
JUGNU 21 Nov 06:11:10 06:12:06 10° 176° (S) 06:13:02 437.505
XW-2B 21 Nov 06:14:25 06:17:39 26° 102° (ESE) 06:20:53 145.730 - 145.750
YUBILEINY 21 Nov 06:20:08 06:28:51 87° 271° (W) 06:37:37 435.215
CUTE-I 21 Nov 06:20:15 06:24:47 29° 103° (ESE) 06:29:19 437.470
KKS-1 21 Nov 06:30:05 06:33:57 29° 258° (WSW) 06:37:49 437.445
NUDT-PHONESAT 21 Nov 06:31:08 06:34:24 29° 101° (ESE) 06:37:41 437.300
XW-2C 21 Nov 06:39:21 06:43:10 72° 101° (E) 06:47:00 145.795 - 145.815
LilacSat-2 21 Nov 06:40:47 06:44:38 85° 101° (E) 06:48:32 437.200
XW-2F 21 Nov 06:50:27 06:54:15 81° 282° (WNW) 06:58:05 145.980 - 146.000
STARS 21 Nov 06:55:08 06:59:19 42° 258° (WSW) 07:03:29 437.465
HO-68 21 Nov 06:58:44 07:04:52 31° 105° (ESE) 07:11:00 435.675
nSIGHT-1 21 Nov 07:04:04 07:07:14 83° 53° (NE) 07:10:25 .
SEEDS 21 Nov 07:07:33 07:09:31 13° 102° (ESE) 07:11:29 437.485
STRAND 1 21 Nov 07:08:32 07:11:25 15° 77° (ENE) 07:14:15 437.568
KAITUO 1B 21 Nov 07:19:18 07:22:48 37° 281° (W) 07:26:19 145.475/437.950
FALCONSAT 3 21 Nov 07:26:27 07:29:51 36° 323° (NW) 07:33:16 435.103
CUBEBUG 2 21 Nov 07:26:47 07:30:04 23° 102° (ESE) 07:33:25 437.445
XW-2D 21 Nov 07:34:36 07:36:44 15° 281° (W) 07:38:54 145.860 - 145.880
ISS 21 Nov 07:47:14 07:50:02 27° 234° (SW) 07:52:52 437.550
RS-15 21 Nov 07:50:26 07:59:30 30° 249° (WSW) 08:08:30 29.354- 29.394
SRMSAT 21 Nov 07:53:54 07:54:27 10° 183° (S) 07:54:58 437.500
JUGNU 21 Nov 07:58:19 08:02:08 17° 166° (SSE) 08:05:56 437.505
XW-2A 21 Nov 07:59:04 08:01:58 26° 101° (ESE) 08:04:53 145.665 - 145.685
CUTE-I 21 Nov 08:00:59 08:04:32 18° 283° (WNW) 08:08:06 437.470
FO-29 21 Nov 08:05:50 08:08:13 12° 74° (ENE) 08:10:41 435.910
CUTE 1.7 + AOD 2 21 Nov 08:09:52 08:13:47 35° 281° (WNW) 08:17:44 437.475
ZACube-1 21 Nov 08:15:20 08:18:44 24° 102° (ESE) 08:22:13 437.345
UWE-3 21 Nov 08:23:27 08:27:36 78° 103° (ESE) 08:31:52 435.000/436.395/437.385
SEEDS 21 Nov 08:41:29 08:44:54 24° 281° (WNW) 08:48:21 437.485
STRAND 1 21 Nov 08:45:44 08:50:18 32° 257° (WSW) 08:54:51 437.568
HO-68 21 Nov 08:46:22 08:52:16 28° 285° (WNW) 08:58:12 435.675
AAUSAT CUBESAT 2 21 Nov 08:48:33 08:52:38 55° 281° (W) 08:56:43 437.432
CUBEBUG 2 21 Nov 09:04:39 09:06:27 13° 281° (W) 09:08:15 437.445
AO-73 21 Nov 09:05:42 09:09:52 69° 281° (W) 09:14:10 145.935
Oscar 11 21 Nov 09:22:35 09:26:52 67° 282° (WNW) 09:31:12 .
DELFI C3 21 Nov 09:23:55 09:25:54 13° 102° (ESE) 09:27:53 145.870
SO-50 21 Nov 09:38:40 09:43:10 43° 248° (WSW) 09:47:42 436.795
SRMSAT 21 Nov 09:42:56 09:44:49 11° 173° (S) 09:46:42 437.500
JUGNU 21 Nov 09:46:04 09:51:37 38° 160° (SSE) 09:57:08 437.505
FO-29 21 Nov 09:47:16 09:52:44 49° 259° (WSW) 09:58:52 435.910
ZACube-1 21 Nov 09:52:51 09:54:46 13° 281° (W) 09:56:42 437.345
UNISAT 6 21 Nov 10:17:12 10:21:51 62° 78° (ENE) 10:26:24 437.425
TIGRISAT 21 Nov 10:21:36 10:26:16 63° 78° (ENE) 10:30:49 435.000
EO-88 21 Nov 10:29:43 10:33:19 59° 102° (ESE) 10:36:56 145.990 - 145.960
Max Valier Satellite 21 Nov 10:30:44 10:34:25 78° 281° (W) 10:38:08 145.860
DELFI C3 21 Nov 10:57:29 11:00:21 19° 281° (WNW) 11:03:14 145.870
PRISM 21 Nov 11:20:47 11:24:49 62° 258° (WSW) 11:28:52 437.425
SRMSAT 21 Nov 11:30:23 11:34:49 21° 164° (SSE) 11:39:15 437.500
JUGNU 21 Nov 11:34:43 11:40:43 79° 338° (NNW) 11:46:40 437.505
EO-79 21 Nov 11:45:22 11:47:40 14° 78° (ENE) 11:49:56 145.935-145.965
AIST 2D 21 Nov 11:48:40 11:52:07 73° 80° (E) 11:55:32 435.315
NANOSAT C BR1 21 Nov 11:48:55 11:51:01 13° 78° (ENE) 11:53:06 145.865
PCSat 21 Nov 11:53:41 11:59:05 90° 160° (SSE) 12:04:29 145.827
POLYITAN 1 21 Nov 11:59:31 12:02:55 23° 78° (ENE) 12:06:18 437.675
ESTCUBE 1 21 Nov 12:08:48 12:13:19 86° 100° (E) 12:17:53 437.505/2401.250
QB50P2 21 Nov 12:21:58 12:26:12 59° 78° (ENE) 12:30:22 145.880/145.840
LO-87 21 Nov 12:28:44 12:31:29 22° 281° (W) 12:34:15 145.935 - 145.965
VELOX 1 21 Nov 12:31:54 12:34:22 15° 102° (ESE) 12:36:50 145.980
NO-84 21 Nov 13:10:58 13:13:32 24° 121° (ESE) 13:16:13 435.350 FM
DUCHIFAT 1 21 Nov 13:11:58 13:15:56 39° 258° (WSW) 13:19:53 145.980
SRMSAT 21 Nov 13:18:30 13:24:16 53° 160° (SSE) 13:30:02 437.500
EO-79 21 Nov 13:19:48 13:23:08 22° 258° (WSW) 13:26:28 145.935-145.965
NANOSAT C BR1 21 Nov 13:23:02 13:26:26 23° 258° (WSW) 13:29:50 145.865
JUGNU 21 Nov 13:24:45 13:29:52 29° 341° (NNW) 13:34:56 437.505
SPROUT 21 Nov 13:28:16 13:32:15 42° 282° (WNW) 13:36:15 437.525
POLYITAN 1 21 Nov 13:36:13 13:38:25 14° 258° (WSW) 13:40:35 437.675
O/OREOS (USA 219) 21 Nov 13:37:44 13:42:09 48° 284° (WNW) 13:46:34 437.305
Oscar 19 21 Nov 13:54:18 13:59:17 51° 78° (ENE) 14:04:12 437.125/150
UKube-1 21 Nov 13:59:13 14:02:19 20° 103° (ESE) 14:05:25 .
BEESAT 2 21 Nov 14:04:12 14:06:05 13° 68° (ENE) 14:07:56 435.950
BUGSAT 1 21 Nov 14:04:39 14:08:40 42° 258° (WSW) 14:12:40 437.445
VELOX 1 21 Nov 14:07:01 14:10:31 23° 282° (WNW) 14:14:03 145.980
50 SAT 21 Nov 14:16:46 14:19:57 84° 283° (WNW) 14:23:08 437.505
Gurwin Techsat 1B 21 Nov 14:18:52 14:24:09 66° 77° (ENE) 14:29:24 435.225
BEESAT 3 21 Nov 14:28:30 14:32:04 38° 248° (WSW) 14:35:36 437.485
DX 1 21 Nov 14:52:04 14:56:02 36° 282° (WNW) 15:00:01 434.975-435.025
AO-85 21 Nov 14:55:17 14:59:43 29° 69° (ENE) 15:04:17 145.980
ITUPSAT 1 21 Nov 15:04:26 15:06:14 12° 103° (ESE) 15:08:00 437.325
SRMSAT 21 Nov 15:07:41 15:13:29 56° 339° (NNW) 15:19:16 437.500
AO-7 21 Nov 15:10:41 15:17:27 28° 73° (ENE) 15:24:09 .
MOZHAYETS 4 21 Nov 15:14:52 15:18:37 25° 102° (ESE) 15:22:22
JUGNU 21 Nov 15:16:33 15:19:27 14° 349° (NNW) 15:22:20 437.505
M-CUBED/EXP-1 PRIME 21 Nov 15:18:17 15:21:32 78° 75° (ENE) 15:24:53 437.505
UKube-1 21 Nov 15:35:17 15:38:03 17° 282° (WNW) 15:40:50 .
BEESAT 2 21 Nov 15:40:38 15:43:31 20° 248° (WSW) 15:46:24 435.950
ITAMSAT 1 21 Nov 15:47:08 15:51:40 30° 77° (ENE) 15:56:12 435.822/435.867
BEESAT 21 Nov 16:29:32 16:34:01 44° 282° (WNW) 16:38:33 436.000
AO-85 21 Nov 16:36:15 16:39:58 19° 247° (WSW) 16:43:45 145.980
ITUPSAT 1 21 Nov 16:39:29 16:43:45 34° 282° (WNW) 16:48:02 437.325
MOZHAYETS 4 21 Nov 16:52:52 16:55:29 15° 282° (WNW) 16:58:07
SRMSAT 21 Nov 16:58:24 17:02:54 22° 344° (NNW) 17:07:25 437.500
YUBILEINY 21 Nov 16:59:38 17:06:00 22° 87° (E) 17:12:20 435.215
AO-7 21 Nov 17:02:20 17:09:50 39° 253° (WSW) 17:17:21 .
CUBESAT XI-V 21 Nov 17:02:38 17:07:19 72° 282° (WNW) 17:12:02 437.345
KKS-1 21 Nov 17:07:02 17:10:00 18° 102° (ESE) 17:12:57 437.445
RS-15 21 Nov 17:18:04 17:28:53 40° 111° (ESE) 17:39:55 29.354- 29.394
ITAMSAT 1 21 Nov 17:27:37 17:30:50 17° 257° (WSW) 17:34:04 435.822/435.867
FALCONSAT 3 21 Nov 17:31:22 17:33:51 17° 36° (NE) 17:36:20 435.103
STARS 21 Nov 17:32:36 17:33:53 11° 103° (ESE) 17:35:11 437.465
XW-2D 21 Nov 17:54:38 17:56:22 13° 79° (ENE) 17:58:03 145.860 - 145.880
DOVE 4 21 Nov 18:00:54 18:05:22 52° 259° (W) 18:10:07 437.250
XW-2B 21 Nov 18:08:22 18:11:10 20° 79° (E) 18:13:57 145.730 - 145.750
NUDT-PHONESAT 21 Nov 18:22:39 18:25:25 21° 79° (E) 18:28:12 437.300
XW-2C 21 Nov 18:33:05 18:36:45 54° 79° (E) 18:40:23 145.795 - 145.815
LilacSat-2 21 Nov 18:35:12 18:38:57 67° 78° (ENE) 18:42:39 437.200
nSIGHT-1 21 Nov 18:36:18 18:39:24 42° 125° (SE) 18:42:28 .
KKS-1 21 Nov 18:43:03 18:46:16 20° 282° (WNW) 18:49:29 437.445
XW-2F 21 Nov 18:43:34 18:47:17 76° 79° (ENE) 18:50:58 145.980 - 146.000
CUTE 1.7 + AOD 2 21 Nov 18:43:50 18:44:29 10° 78° (ENE) 18:45:08 437.475
HO-68 21 Nov 18:50:42 18:56:29 26° 75° (ENE) 19:02:13 435.675
SRMSAT 21 Nov 18:50:54 18:52:51 12° 352° (N) 18:54:48 437.500
YUBILEINY 21 Nov 18:54:08 19:02:24 46° 267° (W) 19:10:40 435.215
JUGNU 21 Nov 18:57:22 18:59:41 12° 10° (N) 19:02:00 437.505
CUTE-I 21 Nov 18:58:42 19:04:04 86° 76° (ENE) 19:09:25 437.470
STARS 21 Nov 19:06:10 19:09:56 29° 282° (WNW) 19:13:43 437.465
FALCONSAT 3 21 Nov 19:09:22 19:12:51 39° 217° (SW) 19:16:20 435.103
KAITUO 1B 21 Nov 19:11:14 19:14:49 49° 259° (W) 19:18:22 145.475/437.950
SEEDS 21 Nov 19:12:13 19:14:34 15° 78° (ENE) 19:16:56 437.485
ISS 21 Nov 19:20:50 19:23:59 46° 305° (NW) 19:27:09 437.550
XW-2D 21 Nov 19:27:42 19:30:15 18° 259° (WSW) 19:32:47 145.860 - 145.880
RS-15 21 Nov 19:30:08 19:40:53 39° 291° (WNW) 19:51:59 29.354- 29.394
CUBEBUG 2 21 Nov 19:38:10 19:42:35 39° 79° (ENE) 19:46:54 437.445
STRAND 1 21 Nov 19:39:14 19:43:53 37° 103° (ESE) 19:48:33 437.568
XW-2A 21 Nov 19:42:35 19:44:15 13° 79° (E) 19:45:53 145.665 - 145.685
XW-2B 21 Nov 19:44:01 19:45:03 11° 258° (WSW) 19:46:06 145.730 - 145.750
NUDT-PHONESAT 21 Nov 19:58:56 19:59:00 10° 258° (WSW) 19:59:03 437.300
SO-50 21 Nov 20:12:51 20:15:42 16° 113° (ESE) 20:18:31 436.795
CUTE 1.7 + AOD 2 21 Nov 20:16:25 20:20:02 28° 258° (WSW) 20:23:38 437.475
ZACube-1 21 Nov 20:24:39 20:28:45 35° 79° (E) 20:32:44 437.345
UWE-3 21 Nov 20:34:20 20:38:57 72° 258° (WSW) 20:43:27 435.000/436.395/437.385
HO-68 21 Nov 20:37:32 20:43:52 34° 255° (WSW) 20:50:12 435.675
JUGNU 21 Nov 20:44:37 20:49:22 25° 18° (NNE) 20:54:06 437.505
SEEDS 21 Nov 20:46:57 20:49:59 20° 258° (WSW) 20:53:01 437.485
AAUSAT CUBESAT 2 21 Nov 20:51:57 20:55:54 48° 259° (WSW) 20:59:51 437.432
XW-2A 21 Nov 21:15:10 21:16:40 12° 258° (WSW) 21:18:09 145.665 - 145.685
AO-73 21 Nov 21:15:13 21:19:33 50° 258° (WSW) 21:23:46 145.935
CUBEBUG 2 21 Nov 21:18:29 21:18:51 10° 257° (WSW) 21:19:12 437.445
FO-29 21 Nov 21:20:01 21:27:22 90° 104° (ESE) 21:33:54 435.910
STRAND 1 21 Nov 21:20:39 21:22:47 13° 283° (WNW) 21:24:56 437.568
DELFI C3 21 Nov 21:22:05 21:23:45 12° 78° (ENE) 21:25:24 145.870
Oscar 11 21 Nov 21:31:25 21:35:35 49° 258° (WSW) 21:39:43 .
